Location: Limoges
(45.8500°N, 1.2500°E)
Time: 02:49:01
(UTC+02:00)

ISS - Pass Details

Date: 27 September 2021
Orbit: 417 x 423 km, 51.6° (Epoch: 21 October)

Event Time Altitude Azimuth Distance (km) Brightness Sun altitude
Rises 21:45:29 0° 296° (WNW) 2,367 1.6 -21.8°
Reaches altitude 10° 21:47:39 10° 304° (NW) 1,502 0.1 -22.2°
Enters shadow 21:50:17 37° 348° (NNW) 670 -2.5 -22.6°
